AAL593 CYHZ-CYYT

Flight info

Callsign AAL593
Flight time 1h 9m
Altitude 41000
Route IGTAS DCT NOTOP Q806 PERLU BURIN6
Aircraft B772/H-SDE2E3FGHIJ5LORVWXY/LB1D1

Departure

Time 2026-05-04 17:51
Airport Halifax / Stanfield International Airport (CYHZ)

Arrival

Time 2026-05-04 19:00
Airport St. John's International Airport (CYYT)
Time Latitude Longitude Altitude Speed Heading
2026-05-04 17:34 44.88855 -63.51419 452 ft 0 kts 240°
2026-05-04 17:43 44.88856 -63.51416 452 ft 0 kts 240°
2026-05-04 17:44 44.88856 -63.51415 452 ft 1 kts 240°
2026-05-04 17:44 44.88864 -63.51397 452 ft 2 kts 239°
2026-05-04 17:44 44.88868 -63.51385 452 ft 2 kts 238°
2026-05-04 17:44 44.88878 -63.51368 452 ft 2 kts 215°
2026-05-04 17:45 44.88892 -63.51358 452 ft 2 kts 195°
2026-05-04 17:45 44.88907 -63.51354 452 ft 2 kts 176°
2026-05-04 17:45 44.88919 -63.51356 452 ft 2 kts 162°
2026-05-04 17:45 44.88932 -63.51365 452 ft 2 kts 144°
2026-05-04 17:46 44.88943 -63.51379 452 ft 0 kts 126°
2026-05-04 17:46 44.88945 -63.51384 452 ft 0 kts 124°
2026-05-04 17:48 44.88919 -63.51339 452 ft 16 kts 142°
2026-05-04 17:48 44.88747 -63.51277 454 ft 28 kts 171°
2026-05-04 17:48 44.88697 -63.51147 455 ft 18 kts 79°
2026-05-04 17:49 44.88724 -63.50956 456 ft 19 kts 71°
2026-05-04 17:49 44.88829 -63.50827 455 ft 20 kts 32°
2026-05-04 17:49 44.88953 -63.50704 450 ft 22 kts 36°
2026-05-04 17:49 44.88972 -63.50523 448 ft 20 kts 122°
2026-05-04 17:50 44.88869 -63.50451 451 ft 16 kts 216°
2026-05-04 17:50 44.88862 -63.50458 451 ft 0 kts 214°
2026-05-04 17:50 44.88800 -63.50520 455 ft 39 kts 216°
2026-05-04 17:50 44.88351 -63.50963 462 ft 111 kts 214°
2026-05-04 17:51 44.87568 -63.51749 597 ft 149 kts 224°
2026-05-04 17:51 44.86735 -63.52576 1273 ft 146 kts 229°
2026-05-04 17:51 44.85964 -63.53514 1945 ft 145 kts 228°
2026-05-04 17:51 44.85095 -63.54375 2257 ft 162 kts 211°
2026-05-04 17:52 44.83910 -63.54436 2735 ft 181 kts 171°
2026-05-04 17:52 44.82859 -63.53224 3035 ft 209 kts 121°
2026-05-04 17:52 44.82695 -63.51166 3407 ft 214 kts 69°
2026-05-04 17:52 44.83387 -63.49278 3689 ft 221 kts 53°
2026-05-04 17:53 44.84259 -63.47327 3910 ft 239 kts 52°
2026-05-04 17:53 44.85209 -63.45222 4472 ft 261 kts 51°
2026-05-04 17:53 44.86209 -63.43002 5357 ft 276 kts 51°
2026-05-04 17:53 44.87295 -63.40587 6229 ft 293 kts 51°
2026-05-04 17:54 44.88421 -63.38078 7260 ft 301 kts 50°
2026-05-04 17:54 44.89560 -63.35534 8303 ft 307 kts 51°
2026-05-04 17:54 44.90707 -63.32969 9281 ft 312 kts 51°
2026-05-04 17:54 44.91895 -63.30309 10258 ft 316 kts 51°
2026-05-04 17:55 44.93105 -63.27605 10877 ft 333 kts 51°
2026-05-04 17:55 44.94083 -63.25419 11296 ft 347 kts 52°
2026-05-04 17:55 44.95412 -63.22445 11857 ft 365 kts 51°
2026-05-04 17:55 44.96817 -63.19291 12446 ft 383 kts 52°
2026-05-04 17:56 44.98290 -63.15974 13036 ft 399 kts 52°
2026-05-04 17:56 44.99809 -63.12548 13625 ft 414 kts 52°
2026-05-04 17:56 45.01370 -63.09012 14503 ft 422 kts 52°
2026-05-04 17:56 45.02964 -63.05393 15470 ft 427 kts 52°
2026-05-04 17:57 45.04553 -63.01778 16450 ft 431 kts 52°
2026-05-04 17:57 45.06184 -62.98065 17355 ft 437 kts 52°
2026-05-04 17:57 45.07806 -62.94355 18173 ft 445 kts 53°
2026-05-04 17:57 45.09425 -62.90449 19143 ft 450 kts 54°
2026-05-04 17:58 45.11009 -62.86549 20071 ft 455 kts 55°
2026-05-04 17:58 45.12626 -62.82568 20904 ft 462 kts 55°
2026-05-04 17:58 45.14249 -62.78569 21649 ft 470 kts 55°
2026-05-04 17:58 45.15918 -62.74454 22505 ft 476 kts 55°
2026-05-04 17:59 45.17612 -62.70273 23385 ft 480 kts 56°
2026-05-04 17:59 45.19304 -62.66093 24107 ft 487 kts 56°
2026-05-04 17:59 45.22766 -62.57521 25575 ft 498 kts 56°
2026-05-04 18:00 45.24532 -62.53139 26261 ft 504 kts 56°
2026-05-04 18:00 45.26293 -62.48764 26933 ft 509 kts 57°
2026-05-04 18:00 45.28083 -62.44310 27624 ft 513 kts 57°
2026-05-04 18:00 45.29863 -62.39874 28246 ft 517 kts 57°
2026-05-04 18:01 45.31692 -62.35310 28804 ft 523 kts 57°
2026-05-04 18:01 45.33507 -62.30771 29420 ft 526 kts 58°
2026-05-04 18:01 45.35354 -62.26143 30147 ft 526 kts 59°
2026-05-04 18:02 45.38967 -62.17068 31447 ft 520 kts 59°
2026-05-04 18:02 45.40765 -62.12544 31914 ft 521 kts 59°
2026-05-04 18:02 45.42602 -62.07916 32376 ft 524 kts 59°
2026-05-04 18:02 45.44412 -62.03335 32802 ft 527 kts 60°
2026-05-04 18:03 45.45987 -61.98510 33249 ft 531 kts 67°
2026-05-04 18:03 45.47368 -61.93535 33793 ft 531 kts 68°
2026-05-04 18:03 45.48721 -61.88575 34418 ft 529 kts 68°
2026-05-04 18:03 45.50056 -61.83667 35059 ft 527 kts 68°
2026-05-04 18:04 45.51392 -61.78745 35641 ft 525 kts 68°
2026-05-04 18:04 45.52733 -61.73796 36130 ft 525 kts 68°
2026-05-04 18:04 45.55381 -61.64000 36944 ft 527 kts 69°
2026-05-04 18:05 45.56724 -61.59018 37364 ft 527 kts 68°
2026-05-04 18:05 45.57772 -61.55123 37720 ft 527 kts 69°
2026-05-04 18:05 45.59099 -61.50182 38199 ft 526 kts 69°
2026-05-04 18:05 45.60409 -61.45291 38689 ft 525 kts 69°
2026-05-04 18:06 45.63034 -61.35469 39593 ft 522 kts 69°
2026-05-04 18:06 45.64349 -61.30532 39979 ft 522 kts 70°
2026-05-04 18:06 45.65659 -61.25603 40303 ft 523 kts 70°
2026-05-04 18:07 45.66960 -61.20698 40678 ft 523 kts 70°
2026-05-04 18:07 45.68268 -61.15756 40843 ft 526 kts 70°
2026-05-04 18:07 45.70879 -61.05864 40859 ft 520 kts 70°
2026-05-04 18:08 45.73461 -60.96037 40865 ft 520 kts 70°
2026-05-04 18:08 45.76044 -60.86166 40860 ft 520 kts 70°
2026-05-04 18:09 45.81147 -60.66544 40846 ft 518 kts 70°
2026-05-04 18:10 45.83685 -60.56720 40835 ft 518 kts 70°
2026-05-04 18:10 45.86210 -60.46908 40838 ft 518 kts 70°
2026-05-04 18:11 45.88730 -60.37072 40841 ft 519 kts 70°
2026-05-04 18:11 45.91241 -60.27231 40818 ft 517 kts 71°
2026-05-04 18:12 45.93742 -60.17386 40811 ft 519 kts 70°
2026-05-04 18:12 45.96243 -60.07500 40798 ft 518 kts 71°
2026-05-04 18:13 45.98714 -59.97690 40795 ft 517 kts 71°
2026-05-04 18:14 46.02419 -59.82899 40797 ft 517 kts 71°
2026-05-04 18:14 46.04878 -59.73031 40807 ft 517 kts 71°
2026-05-04 18:15 46.09531 -59.54235 40803 ft 518 kts 71°
2026-05-04 18:16 46.11995 -59.44221 40793 ft 517 kts 71°
2026-05-04 18:16 46.14416 -59.34338 40794 ft 518 kts 72°
2026-05-04 18:17 46.16843 -59.24383 40596 ft 520 kts 72°
2026-05-04 18:17 46.18061 -59.19373 40581 ft 516 kts 72°
2026-05-04 18:18 46.21676 -59.04430 40578 ft 519 kts 72°
2026-05-04 18:18 46.24061 -58.94519 40574 ft 517 kts 72°
2026-05-04 18:19 46.27641 -58.79556 40572 ft 518 kts 72°
2026-05-04 18:19 46.30024 -58.69538 40578 ft 518 kts 72°
2026-05-04 18:20 46.32385 -58.59570 40559 ft 517 kts 72°
2026-05-04 18:20 46.34747 -58.49553 40556 ft 518 kts 72°
2026-05-04 18:21 46.37096 -58.39542 40558 ft 518 kts 72°
2026-05-04 18:21 46.39431 -58.29549 40551 ft 517 kts 72°
2026-05-04 18:22 46.41761 -58.19530 40548 ft 517 kts 72°
2026-05-04 18:22 46.44077 -58.09522 40541 ft 517 kts 73°
2026-05-04 18:23 46.46340 -57.99704 40552 ft 517 kts 73°
2026-05-04 18:23 46.48647 -57.89646 40528 ft 516 kts 73°
2026-05-04 18:24 46.50929 -57.79648 40530 ft 516 kts 73°
2026-05-04 18:24 46.53216 -57.69583 40524 ft 516 kts 73°
2026-05-04 18:25 46.55220 -57.60722 40507 ft 516 kts 73°
2026-05-04 18:25 46.57491 -57.50639 40526 ft 517 kts 73°
2026-05-04 18:26 46.59747 -57.40576 40523 ft 516 kts 73°
2026-05-04 18:26 46.61994 -57.30502 40509 ft 515 kts 73°
2026-05-04 18:27 46.64219 -57.20482 40516 ft 515 kts 74°
2026-05-04 18:27 46.66438 -57.10438 40502 ft 515 kts 74°
2026-05-04 18:28 46.68655 -57.00361 40502 ft 515 kts 74°
2026-05-04 18:28 46.70864 -56.90264 40519 ft 515 kts 73°
2026-05-04 18:29 46.73047 -56.80242 40521 ft 515 kts 74°
2026-05-04 18:29 46.75238 -56.70132 40520 ft 515 kts 74°
2026-05-04 18:30 46.78493 -56.55024 40519 ft 513 kts 74°
2026-05-04 18:31 46.80650 -56.44954 40521 ft 514 kts 74°
2026-05-04 18:31 46.82807 -56.34829 40507 ft 513 kts 75°
2026-05-04 18:32 46.84935 -56.24794 40495 ft 512 kts 75°
2026-05-04 18:32 46.87060 -56.14717 40485 ft 513 kts 75°
2026-05-04 18:33 46.89183 -56.04606 40492 ft 511 kts 75°
2026-05-04 18:33 46.91285 -55.94544 40483 ft 512 kts 75°
2026-05-04 18:34 46.93390 -55.84414 40497 ft 513 kts 75°
2026-05-04 18:34 46.95462 -55.74399 40044 ft 506 kts 75°
2026-05-04 18:34 46.96307 -55.70298 39232 ft 511 kts 75°
2026-05-04 18:35 46.97342 -55.65260 38357 ft 514 kts 75°
2026-05-04 18:35 46.98375 -55.60223 37558 ft 516 kts 75°
2026-05-04 18:35 46.99426 -55.55088 36821 ft 518 kts 75°
2026-05-04 18:35 47.00469 -55.49972 36101 ft 520 kts 75°
2026-05-04 18:36 47.01525 -55.44783 35304 ft 525 kts 75°
2026-05-04 18:36 47.02583 -55.39567 34480 ft 530 kts 75°
2026-05-04 18:36 47.03645 -55.34319 33615 ft 535 kts 76°
2026-05-04 18:36 47.04719 -55.29001 32713 ft 540 kts 75°
2026-05-04 18:37 47.05811 -55.23578 31938 ft 546 kts 75°
2026-05-04 18:37 47.06899 -55.18159 31041 ft 553 kts 75°
2026-05-04 18:37 47.08005 -55.12637 30236 ft 556 kts 75°
2026-05-04 18:37 47.09100 -55.07153 29519 ft 554 kts 75°
2026-05-04 18:38 47.10191 -55.01683 28665 ft 543 kts 75°
2026-05-04 18:38 47.11229 -54.96462 28189 ft 525 kts 75°
2026-05-04 18:38 47.12270 -54.91205 27634 ft 521 kts 75°
2026-05-04 18:38 47.13287 -54.86060 26944 ft 520 kts 75°
2026-05-04 18:39 47.14309 -54.80868 26218 ft 518 kts 75°
2026-05-04 18:39 47.15319 -54.75725 25582 ft 515 kts 75°
2026-05-04 18:39 47.16321 -54.70613 24992 ft 510 kts 75°
2026-05-04 18:39 47.17307 -54.65571 24422 ft 506 kts 75°
2026-05-04 18:40 47.18284 -54.60558 23829 ft 502 kts 75°
2026-05-04 18:40 47.19249 -54.55591 23224 ft 498 kts 75°
2026-05-04 18:40 47.20208 -54.50648 22623 ft 494 kts 75°
2026-05-04 18:40 47.21161 -54.45723 22023 ft 490 kts 75°
2026-05-04 18:41 47.22096 -54.40875 21450 ft 485 kts 75°
2026-05-04 18:41 47.23012 -54.36115 20882 ft 481 kts 75°
2026-05-04 18:41 47.23936 -54.31303 20281 ft 477 kts 76°
2026-05-04 18:41 47.24845 -54.26555 19691 ft 472 kts 76°
2026-05-04 18:42 47.25708 -54.22036 19126 ft 468 kts 76°
2026-05-04 18:42 47.26598 -54.17368 18541 ft 464 kts 76°
2026-05-04 18:42 47.27470 -54.12778 17983 ft 460 kts 76°
2026-05-04 18:42 47.28341 -54.08183 17412 ft 456 kts 76°
2026-05-04 18:43 47.29202 -54.03638 16822 ft 452 kts 76°
2026-05-04 18:43 47.30188 -53.99231 16249 ft 448 kts 72°
2026-05-04 18:43 47.31240 -53.94839 15656 ft 445 kts 72°
2026-05-04 18:43 47.32281 -53.90476 15072 ft 441 kts 72°
2026-05-04 18:44 47.33301 -53.86167 14516 ft 438 kts 72°
2026-05-04 18:44 47.33978 -53.83293 14134 ft 435 kts 72°
2026-05-04 18:44 47.35301 -53.77648 13385 ft 431 kts 72°
2026-05-04 18:44 47.36068 -53.74365 12942 ft 429 kts 73°
2026-05-04 18:45 47.37051 -53.70140 12388 ft 425 kts 73°
2026-05-04 18:45 47.38020 -53.65960 11829 ft 422 kts 73°
2026-05-04 18:45 47.38980 -53.61808 11262 ft 419 kts 73°
2026-05-04 18:45 47.39931 -53.57687 10718 ft 416 kts 73°
2026-05-04 18:46 47.40868 -53.53618 10228 ft 411 kts 73°
2026-05-04 18:46 47.41787 -53.49618 10133 ft 395 kts 74°
2026-05-04 18:46 47.42664 -53.45799 10073 ft 380 kts 74°
2026-05-04 18:46 47.43509 -53.42109 10024 ft 365 kts 74°
2026-05-04 18:47 47.44319 -53.38566 10027 ft 350 kts 75°
2026-05-04 18:47 47.45100 -53.35143 10031 ft 337 kts 75°
2026-05-04 18:47 47.45840 -53.31888 10006 ft 324 kts 76°
2026-05-04 18:47 47.46557 -53.28727 9847 ft 319 kts 76°
2026-05-04 18:48 47.47278 -53.25530 9519 ft 330 kts 76°
2026-05-04 18:48 47.48014 -53.22273 9173 ft 331 kts 76°
2026-05-04 18:48 47.48758 -53.18989 8850 ft 330 kts 76°
2026-05-04 18:48 47.49500 -53.15707 8530 ft 329 kts 76°
2026-05-04 18:49 47.50229 -53.12473 8222 ft 327 kts 76°
2026-05-04 18:49 47.50962 -53.09220 7894 ft 326 kts 76°
2026-05-04 18:49 47.51683 -53.06010 7579 ft 325 kts 76°
2026-05-04 18:49 47.52399 -53.02819 7260 ft 323 kts 76°
2026-05-04 18:50 47.52893 -52.99572 6954 ft 315 kts 89°
2026-05-04 18:50 47.53093 -52.96304 6635 ft 312 kts 92°
2026-05-04 18:50 47.53245 -52.93073 6317 ft 311 kts 93°
2026-05-04 18:50 47.53401 -52.89796 5989 ft 309 kts 93°
2026-05-04 18:51 47.53555 -52.86601 5669 ft 308 kts 93°
2026-05-04 18:51 47.53711 -52.83414 5363 ft 306 kts 93°
2026-05-04 18:51 47.53865 -52.80227 5145 ft 301 kts 93°
2026-05-04 18:51 47.54016 -52.77164 5065 ft 291 kts 94°
2026-05-04 18:52 47.54162 -52.74182 5007 ft 280 kts 94°
2026-05-04 18:52 47.54300 -52.71273 4920 ft 272 kts 94°
2026-05-04 18:52 47.54432 -52.68465 4816 ft 267 kts 94°
2026-05-04 18:52 47.54562 -52.65688 4708 ft 264 kts 95°
2026-05-04 18:53 47.54688 -52.62983 4604 ft 263 kts 95°
2026-05-04 18:53 47.54815 -52.60247 4513 ft 264 kts 95°
2026-05-04 18:53 47.54942 -52.57517 4403 ft 263 kts 95°
2026-05-04 18:53 47.55069 -52.54774 4299 ft 262 kts 94°
2026-05-04 18:54 47.55399 -52.52069 4171 ft 270 kts 70°
2026-05-04 18:54 47.56553 -52.49784 4039 ft 271 kts 35°
2026-05-04 18:54 47.57850 -52.48772 3944 ft 257 kts
2026-05-04 18:54 47.59567 -52.48570 3832 ft 234 kts 343°
2026-05-04 18:55 47.61179 -52.48884 3738 ft 218 kts 328°
2026-05-04 18:55 47.63088 -52.51340 3533 ft 157 kts 278°
2026-05-04 18:55 47.63335 -52.52842 3266 ft 144 kts 266°
2026-05-04 18:56 47.63431 -52.54291 3045 ft 133 kts 257°
2026-05-04 18:56 47.63379 -52.55666 2870 ft 130 kts 254°
2026-05-04 18:56 47.63314 -52.57030 2702 ft 132 kts 254°
2026-05-04 18:56 47.63248 -52.58398 2523 ft 131 kts 254°
2026-05-04 18:57 47.63183 -52.59785 2341 ft 132 kts 255°
2026-05-04 18:57 47.63122 -52.61154 2162 ft 131 kts 254°
2026-05-04 18:57 47.63059 -52.62476 1982 ft 117 kts 253°
2026-05-04 18:57 47.63003 -52.63642 1832 ft 108 kts 252°
2026-05-04 18:58 47.62952 -52.64744 1681 ft 102 kts 251°
2026-05-04 18:58 47.62897 -52.65825 1518 ft 108 kts 252°
2026-05-04 18:58 47.62843 -52.67001 1345 ft 117 kts 253°
2026-05-04 18:58 47.62792 -52.68188 1227 ft 108 kts 253°
2026-05-04 18:59 47.62733 -52.69292 1064 ft 107 kts 255°
2026-05-04 18:59 47.62679 -52.70410 885 ft 109 kts 256°
2026-05-04 18:59 47.62635 -52.71616 765 ft 111 kts 256°
2026-05-04 18:59 47.62597 -52.72732 589 ft 105 kts 252°
2026-05-04 19:00 47.62524 -52.73845 456 ft 107 kts 256°
2026-05-04 19:00 47.62471 -52.74839 446 ft 75 kts 267°
2026-05-04 19:00 47.62451 -52.75364 462 ft 24 kts 267°
2026-05-04 19:00 47.62452 -52.75541 469 ft 6 kts 244°
2026-05-04 19:01 47.62436 -52.75506 467 ft 11 kts 82°
2026-05-04 19:01 47.62453 -52.75279 458 ft 30 kts 85°
2026-05-04 19:01 47.62416 -52.74976 453 ft 28 kts 137°
2026-05-04 19:01 47.62268 -52.74796 452 ft 26 kts 144°
2026-05-04 19:02 47.62122 -52.74652 451 ft 21 kts 150°
2026-05-04 19:02 47.62052 -52.74535 448 ft 15 kts 123°
2026-05-04 19:02 47.61975 -52.74417 445 ft 16 kts 138°
2026-05-04 19:02 47.61883 -52.74287 441 ft 21 kts 137°
2026-05-04 19:03 47.61744 -52.74112 437 ft 30 kts 139°
2026-05-04 19:03 47.61552 -52.73870 431 ft 35 kts 155°
2026-05-04 19:03 47.61365 -52.73835 434 ft 15 kts 176°
2026-05-04 19:03 47.61286 -52.73826 436 ft 6 kts 176°
2026-05-04 19:04 47.61265 -52.73842 437 ft 2 kts 231°
2026-05-04 19:04 47.61268 -52.73896 439 ft 6 kts 299°
2026-05-04 19:04 47.61279 -52.73930 440 ft 1 kts 279°
2026-05-04 19:04 47.61276 -52.73992 443 ft 9 kts 266°
2026-05-04 19:05 47.61274 -52.74074 446 ft 3 kts 265°
2026-05-04 19:05 47.61274 -52.74076 446 ft 0 kts 265°